[[{"header":{"parameterUnit":"m.s-1","parameterCategory":1,"la1":30.2991,"la2":30.254,"lo1":-89.0895,"lo2":-89.0444,"dy":0.0017,"dx":0.0017,"nx":28,"ny":28,"refTime":"2025-03-25T09:00:00:Z","depth":0,"parameterNumber":2,"parameterNumberName":"U-component_of_WINDS"},"data":[0,0,0,0,0,0,0,0,0,0,0,0,0,0,0,0,0,0,0,0,0,0,0,0,0,0,0,0,0,0,0,0,0,0,0,0,0,0,0,0,0,0,0,0,0,0,0,0,0,0,0,0,0,0,0,0,0,0,0.106,0.106,0,0.1066,0.1066,0.1066,0.1068,0.1068,0.1068,0.1068,0.1075,0.1075,0.1075,0,0,0,0,0,0,0,0,0,0,0,0,0,0.105,0.1051,0.106,0.106,0.106,0.1066,0.1066,0.1066,0.1068,0.1068,0.1068,0.1068,0.1075,0.1075,0.1075,0,0,0,0,0,0,0,0,0,0,0,0,0,0.1055,0.1051,0.106,0.1062,0.1062,0.1066,0.1066,0.1066,0.1068,0.1068,0.1068,0.1068,0.1075,0.1075,0.1075,0.1078,0,0,0.1076,0.1076,0,0,0,0,0,0,0,0,0.1055,0.1056,0.1061,0.1061,0.1062,0.1066,0.1065,0.107,0.1068,0.1066,0.1068,0.1068,0.1072,0.1073,0.1074,0.1078,0.1078,0.1076,0.1076,0.1076,0.1076,0,0,0,0,0,0,0,0.1055,0.1055,0.1062,0.1061,0.1062,0.1063,0.1063,0.1066,0.1069,0.1066,0.1066,0.1067,0.1072,0.1073,0.1074,0.1078,0.1076,0.1076,0.1077,0.1077,0.1086,0.1086,0,0,0,0,0,0,0.1054,0.1055,0.1062,0.1062,0.1058,0.1063,0.1064,0.1065,0.1069,0.107,0.1067,0.1067,0.1073,0.1074,0.1074,0.1078,0.1076,0.1077,0.1077,0.1086,0.1086,0.1086,0,0,0,0,0,0,0.1054,0.1055,0.1062,0.1059,0.106,0.1063,0.1065,0.1065,0.1066,0.107,0.107,0.1068,0.1073,0.1074,0.1077,0.1078,0.1077,0.1077,0.1086,0.1086,0.1086,0.1085,0,0,0,0,0,0,0.1053,0.1054,0.1055,0.1059,0.106,0.1064,0.1065,0.1065,0.1067,0.1067,0.1071,0.1071,0.1073,0.1077,0.1077,0.1079,0.1077,0.1086,0.1086,0.1086,0.1085,0.1085,0.1085,0,0,0,0,0,0.1053,0.1054,0.1055,0.1056,0.1061,0.1064,0.1065,0.1067,0.1067,0.1068,0.107,0.1071,0.1078,0.1077,0.1078,0.1079,0.1086,0.1086,0.1086,0.1085,0.1085,0.1085,0,0,0,0,0,0,0.105,0.1054,0.1056,0.1058,0.1061,0.1064,0.1065,0.1067,0.1069,0.1069,0.1072,0.1073,0.1076,0.1078,0.1077,0.1082,0.1082,0.1082,0.1081,0.1081,0.1081,0.108,0.1078,0,0,0,0,0,0.1049,0.1052,0.1056,0.1057,0.1059,0.1062,0.1063,0.1065,0.1068,0.1069,0.1072,0.1075,0.1078,0.108,0.1082,0.1086,0.1087,0.1087,0.1087,0.1087,0.1087,0.109,0.1091,0.1087,0.1087,0.1087,0,0,0.1048,0.1051,0.1052,0.1057,0.1059,0.1062,0.1063,0.1065,0.1067,0.1069,0.1073,0.1075,0.1079,0.1082,0.1084,0.1084,0.1089,0.1088,0.1088,0.1088,0.1091,0.1091,0.1091,0.1087,0.1087,0.1087,0,0,0.1048,0.105,0.1052,0.1055,0.1058,0.1061,0.1061,0.1066,0.1067,0.1071,0.1073,0.1076,0.1081,0.1084,0.1086,0.1088,0.1089,0.1089,0.109,0.1092,0.1093,0.1093,0.1094,0.1095,0.1089,0.1089,0.1089,0,0.1046,0.105,0.1053,0.1055,0.1058,0.106,0.1063,0.1065,0.107,0.1072,0.1072,0.1079,0.1081,0.1086,0.1087,0.1089,0.109,0.1088,0.1092,0.1093,0.1093,0.1095,0.1095,0.1089,0.1089,0.1089,0.1089,0,0.1048,0.105,0.1052,0.1056,0.1059,0.1061,0.1065,0.1068,0.107,0.1072,0.1077,0.108,0.1084,0.1086,0.1087,0.1091,0.1091,0.1092,0.1092,0.1093,0.1095,0.1095,0.1089,0.1089,0.1089,0.1089,0,0,0.1043,0.1051,0.1052,0.1054,0.106,0.1062,0.1066,0.107,0.1072,0.1076,0.1079,0.1084,0.1085,0.1088,0.109,0.1092,0.1095,0.1093,0.1093,0.1093,0.1101,0.11,0.1101,0.1096,0.1097,0.1097,0.1101,0,0.1044,0.1049,0.1053,0.1057,0.1061,0.1064,0.1067,0.1071,0.1074,0.1078,0.1082,0.1085,0.1086,0.1088,0.1091,0.1094,0.1097,0.1094,0.11,0.11,0.1098,0.1101,0.11,0.1104,0.1101,0.1101,0.1101,0,0.1044,0.1048,0.1053,0.1059,0.1061,0.1063,0.1069,0.1072,0.1077,0.1079,0.1083,0.1086,0.109,0.109,0.1097,0.1095,0.1098,0.11,0.11,0.1101,0.11,0.1102,0.1105,0.1105,0.1102,0.1102,0.1102,0,0.1041,0.1048,0.1052,0.1054,0.1062,0.1064,0.1067,0.1072,0.1075,0.108,0.1082,0.1087,0.109,0.1094,0.1098,0.1098,0.1105,0.1105,0.1107,0.1107,0.1108,0.1108,0.1111,0.111,0.111,0.111,0.111,0,0.1041,0.1044,0.1051,0.1053,0.1057,0.1062,0.1066,0.1069,0.1074,0.1078,0.1082,0.1085,0.1091,0.1095,0.1099,0.1104,0.1106,0.1108,0.1109,0.1107,0.1107,0.1109,0.1109,0.111,0.111,0.111,0.111,0,0.1038,0.1043,0.1047,0.1055,0.1056,0.1059,0.1065,0.1068,0.1072,0.1077,0.1079,0.1085,0.109,0.1096,0.1103,0.1105,0.1111,0.1112,0.1109,0.111,0.1112,0.1111,0.1116,0.1118,0.1115,0.1115,0.1115,0,0.1037,0.1039,0.1047,0.105,0.1053,0.1058,0.1061,0.1067,0.107,0.1077,0.1079,0.1085,0.109,0.11,0.1105,0.1111,0.1112,0.1114,0.1113,0.1112,0.1113,0.1112,0.1113,0.1113,0.1113,0.1113,0.1113,0,0.1035,0.1038,0.1042,0.1048,0.1052,0.1057,0.1062,0.1065,0.1071,0.1075,0.1081,0.1085,0.1093,0.11,0.1107,0.1111,0.1113,0.1114,0.1115,0.1113,0.1112,0.1113,0.1109,0.1113,0.1113,0.1113,0.1113,0.1113,0.1033,0.1036,0.1042,0.1048,0.1052,0.1057,0.1061,0.1066,0.1071,0.1078,0.1081,0.1088,0.1094,0.1104,0.1108,0.1114,0.1114,0.1115,0.1116,0.1116,0.1116,0.1111,0.1115,0.1115,0.1115,0.1115,0.1115,0,0.1032,0.1037,0.1042,0.1049,0.1053,0.1056,0.1063,0.1066,0.1072,0.1078,0.1083,0.1091,0.1097,0.1104,0.1111,0.1115,0.1116,0.1116,0.1116,0.1117,0.1115,0.1113,0.1115,0.1115,0.1115,0.1115,0.1115,0.1115,0.1032,0.1037,0.1041,0.1049,0.1053,0.106,0.1063,0.1068,0.1073,0.1082,0.1087,0.1092,0.1098,0.1106,0.1113,0.1115,0.1117,0.1117,0.1119,0.1117,0.1117,0.1117,0.1116,0.1118,0.1118,0.1121,0.1121,0.1121]},{"header":{"parameterUnit":"m.s-1","parameterCategory":1,"la1":30.2991,"la2":30.254,"lo1":-89.0895,"lo2":-89.0444,"dy":0.0017,"dx":0.0017,"nx":28,"ny":28,"refTime":"2025-03-25T09:00:00:Z","depth":0,"parameterNumber":3,"parameterNumberName":"V-component_of_WINDS"},"data":[0,0,0,0,0,0,0,0,0,0,0,0,0,0,0,0,0,0,0,0,0,0,0,0,0,0,0,0,0,0,0,0,0,0,0,0,0,0,0,0,0,0,0,0,0,0,0,0,0,0,0,0,0,0,0,0,0,0,-2.3316,-2.3317,0,-2.3396,-2.3397,-2.3398,-2.3402,-2.3401,-2.34,-2.3399,-2.3477,-2.348,-2.3482,0,0,0,0,0,0,0,0,0,0,0,0,0,-2.3163,-2.3165,-2.3316,-2.3317,-2.3318,-2.3396,-2.3397,-2.3398,-2.3402,-2.3401,-2.34,-2.3398,-2.3476,-2.3479,-2.3483,0,0,0,0,0,0,0,0,0,0,0,0,0,-2.3234,-2.3166,-2.3316,-2.3329,-2.3331,-2.3396,-2.3397,-2.3398,-2.3402,-2.3401,-2.3399,-2.3398,-2.3475,-2.3479,-2.3483,-2.3538,0,0,-2.3497,-2.3499,0,0,0,0,0,0,0,0,-2.323,-2.324,-2.3326,-2.3328,-2.3331,-2.3388,-2.3372,-2.3445,-2.3402,-2.3375,-2.3399,-2.3397,-2.3448,-2.3454,-2.3472,-2.3542,-2.3545,-2.3497,-2.35,-2.3502,-2.3503,0,0,0,0,0,0,0,-2.3225,-2.3237,-2.3347,-2.3327,-2.333,-2.333,-2.3339,-2.3385,-2.3418,-2.3377,-2.3378,-2.3387,-2.3449,-2.3468,-2.3474,-2.3546,-2.3497,-2.3501,-2.3504,-2.3505,-2.3666,-2.3668,0,0,0,0,0,0,-2.3218,-2.3232,-2.3345,-2.335,-2.3276,-2.3334,-2.3344,-2.3371,-2.3418,-2.3424,-2.3389,-2.3387,-2.3461,-2.3469,-2.3477,-2.3545,-2.3502,-2.3506,-2.3508,-2.3664,-2.3666,-2.3668,0,0,0,0,0,0,-2.3215,-2.3228,-2.3342,-2.3291,-2.3306,-2.3338,-2.3368,-2.3373,-2.3392,-2.3426,-2.3432,-2.3403,-2.346,-2.3471,-2.3524,-2.3548,-2.3508,-2.3512,-2.3662,-2.3665,-2.3667,-2.3682,0,0,0,0,0,0,-2.3211,-2.3227,-2.3249,-2.3292,-2.3309,-2.3388,-2.337,-2.3375,-2.34,-2.34,-2.3441,-2.3446,-2.346,-2.3517,-2.3528,-2.3553,-2.3515,-2.366,-2.3664,-2.3666,-2.3679,-2.3685,-2.3689,0,0,0,0,0,-2.3205,-2.3249,-2.325,-2.3264,-2.3337,-2.3389,-2.3399,-2.3415,-2.3402,-2.3424,-2.3446,-2.3445,-2.3544,-2.3522,-2.3535,-2.3562,-2.3659,-2.3663,-2.3666,-2.3677,-2.3684,-2.3689,0,0,0,0,0,0,-2.3206,-2.3255,-2.3257,-2.3316,-2.3349,-2.339,-2.3418,-2.3421,-2.3457,-2.3455,-2.3472,-2.3481,-2.3534,-2.3553,-2.3528,-2.3618,-2.36,-2.3606,-2.3604,-2.361,-2.3615,-2.3609,-2.3519,0,0,0,0,0,-2.3214,-2.3254,-2.3293,-2.3341,-2.3358,-2.3385,-2.3409,-2.3419,-2.3453,-2.3466,-2.3492,-2.3524,-2.3562,-2.3587,-2.3624,-2.3682,-2.3691,-2.3707,-2.3712,-2.3716,-2.3721,-2.3753,-2.3761,-2.368,-2.368,-2.368,0,0,-2.3229,-2.326,-2.3284,-2.3342,-2.3369,-2.3409,-2.3397,-2.3439,-2.3469,-2.3472,-2.3525,-2.3544,-2.3581,-2.3637,-2.3663,-2.3655,-2.3745,-2.372,-2.3723,-2.3726,-2.3758,-2.3766,-2.3772,-2.3683,-2.3682,-2.3682,0,0,-2.3277,-2.3305,-2.3349,-2.3376,-2.3418,-2.3436,-2.3446,-2.3487,-2.3501,-2.3554,-2.3558,-2.3593,-2.3658,-2.3685,-2.3707,-2.3767,-2.3767,-2.3778,-2.3803,-2.3835,-2.3841,-2.3847,-2.3869,-2.3876,-2.3783,-2.3783,-2.3783,0,-2.329,-2.3352,-2.337,-2.3414,-2.344,-2.3446,-2.349,-2.3516,-2.3566,-2.3583,-2.3573,-2.3657,-2.3682,-2.3745,-2.376,-2.3777,-2.3789,-2.3773,-2.3839,-2.3845,-2.3851,-2.3871,-2.388,-2.3784,-2.3784,-2.3784,-2.3784,0,-2.3367,-2.341,-2.344,-2.3491,-2.352,-2.3563,-2.3587,-2.3614,-2.3622,-2.3641,-2.3694,-2.3725,-2.3769,-2.3785,-2.3791,-2.3849,-2.3842,-2.3836,-2.3817,-2.3859,-2.3879,-2.3887,-2.3786,-2.3785,-2.3785,-2.3785,0,0,-2.3417,-2.3479,-2.349,-2.3514,-2.356,-2.3593,-2.3636,-2.3681,-2.3704,-2.3739,-2.3776,-2.3832,-2.3826,-2.3851,-2.3861,-2.3889,-2.3935,-2.3879,-2.388,-2.3889,-2.4,-2.4006,-2.4015,-2.3936,-2.3937,-2.3939,-2.3998,0,-2.3471,-2.3551,-2.3569,-2.3637,-2.3677,-2.3684,-2.3722,-2.3755,-2.3773,-2.3809,-2.3829,-2.3869,-2.3859,-2.3874,-2.3902,-2.3924,-2.3958,-2.392,-2.397,-2.3971,-2.3961,-2.4025,-2.403,-2.4085,-2.4005,-2.4007,-2.4008,0,-2.3545,-2.3584,-2.3656,-2.3699,-2.3716,-2.375,-2.3793,-2.3827,-2.3864,-2.3875,-2.3904,-2.3912,-2.3957,-2.3936,-2.3998,-2.3972,-2.3993,-2.4007,-2.401,-2.4015,-2.3992,-2.4033,-2.4102,-2.411,-2.402,-2.4019,-2.4018,0,-2.3575,-2.3645,-2.3698,-2.3718,-2.3768,-2.3792,-2.3814,-2.385,-2.3876,-2.3913,-2.393,-2.3971,-2.3993,-2.4024,-2.4042,-2.4026,-2.4103,-2.4084,-2.4114,-2.4113,-2.413,-2.4129,-2.4204,-2.4143,-2.4143,-2.4143,-2.4142,0,-2.3634,-2.3678,-2.3713,-2.3745,-2.3795,-2.3815,-2.3863,-2.3885,-2.3917,-2.3953,-2.3961,-2.3994,-2.4016,-2.4052,-2.4066,-2.4116,-2.4126,-2.4136,-2.4139,-2.4136,-2.4135,-2.415,-2.4147,-2.4145,-2.4144,-2.4144,-2.4143,0,-2.3676,-2.3701,-2.376,-2.3804,-2.3816,-2.385,-2.3887,-2.3919,-2.3938,-2.3984,-2.3996,-2.4026,-2.4069,-2.409,-2.4143,-2.4153,-2.4209,-2.421,-2.4198,-2.4199,-2.4228,-2.4225,-2.4316,-2.4329,-2.4259,-2.4259,-2.426,0,-2.3712,-2.3747,-2.3795,-2.3821,-2.3844,-2.3885,-2.3912,-2.3933,-2.3961,-2.4006,-2.4032,-2.4076,-2.4112,-2.4181,-2.4207,-2.4248,-2.425,-2.4279,-2.4256,-2.4251,-2.4251,-2.4249,-2.4252,-2.4283,-2.4284,-2.4284,-2.4285,0,-2.3774,-2.3785,-2.3825,-2.3869,-2.3902,-2.3938,-2.3972,-2.3993,-2.4019,-2.405,-2.4095,-2.4124,-2.4179,-2.4223,-2.4266,-2.4287,-2.429,-2.4292,-2.4301,-2.4298,-2.4289,-2.4295,-2.4209,-2.429,-2.4289,-2.4289,-2.4288,-2.4288,-2.3814,-2.3846,-2.3885,-2.393,-2.3959,-2.3991,-2.4024,-2.4048,-2.4087,-2.4135,-2.4144,-2.4193,-2.4228,-2.4287,-2.431,-2.4347,-2.434,-2.4353,-2.4357,-2.436,-2.4362,-2.4283,-2.4355,-2.4355,-2.4354,-2.4354,-2.4354,0,-2.3877,-2.3903,-2.3943,-2.3993,-2.4028,-2.403,-2.4069,-2.4097,-2.414,-2.4174,-2.4211,-2.4263,-2.4306,-2.4336,-2.4379,-2.4403,-2.4406,-2.4414,-2.4412,-2.4417,-2.4365,-2.4353,-2.4411,-2.4411,-2.4411,-2.4411,-2.4411,-2.4411,-2.3913,-2.3967,-2.3983,-2.4051,-2.4076,-2.4125,-2.4148,-2.4178,-2.4205,-2.4264,-2.43,-2.432,-2.4352,-2.4398,-2.4437,-2.4445,-2.446,-2.4468,-2.4476,-2.4426,-2.4421,-2.4415,-2.4404,-2.4472,-2.4472,-2.4525,-2.4526,-2.4526]}]]